星链-5720 (STARLINK-5720 )

导读 | 星芒AI

STARLINK-5720 是 SpaceX Starlink 卫星互联网项目中的一颗低轨道卫星,属于“星链”计划的组成部分。该卫星由 SpaceX 研制并发射,旨在为全球用户提供高速互联网接入服务。它运行在约 550 公里的近地轨道,采用先进通信技术,支持宽带数据传输。STARLINK-5720 与其他星链卫星协同工作,构建全球覆盖的卫星网络,提升偏远地区和传统网络难以覆盖区域的网络连接能力。该计划致力于实现全球互联网覆盖,推动数字包容性发展。

基本信息
目录编号:
55619
目录名称:
STARLINK-5720
国际标识:
2023-020BC
轨道中心:
EARTH
卫星名称:
星链-5720
卫星全名:
星链-5720 (STARLINK-5720 )
卫星状态:
在轨 (已飞行996 天)
发射日期:
2023-02-12 UTC
国别 :
美国 (US)
星等 :
--
轨道信息
数据来源 国际轨道数据
星历时间: 2025-11-04T01:26:57+0800
18小时前
查看轨道信息
半长轴: 6937.221km
偏心率: 0.0000994
轨道倾角: 43.005°
近地点辐角 274.639°
升交点赤经 315.906°
平近点角 85.434°
近地点: 558.396km
远地点: 559.776km
周期: 95.838分钟
每日圈数: 15.025347
详细信息
固有亮度:
5
最大亮度:
2.5
卫星平台:
Starlink v1.5
覆盖范围:
全球
运营商:
太空探索技术公司
运营商所在国:
美国
制造商(研发单位):
太空探索技术公司
制造商所在国:
美国
使用方式:
暂无
卫星简介
星链(Starlink)计划是由太空探索技术公司(SpaceX)提出的一个巨型低轨卫星互联网星座项目,计划在2019年至2024年间在太空搭建由约1.2万颗卫星组成的“星链”网络,其中1584颗将部署在地球上空550千米处的近地轨道,并从2020年开始工作。该卫星仍在工作。
2D轨道图
3D轨道图
轨道高度分析图
轨道倾角分析图
轨道综合分析图
查看轨道综合分析图